Regional Weather Roundup
Issued by NWS

Home | Current Version | Previous Version | Text Only | Print | Product List | Glossary Off
Versions: 1 2 3 4 5 6 7 8 9 10 11 12 13 14 15 16 17 18 19 20 21 22 23 24 25 26 27 28 29 30 31 32 33 34 35 36 37 38 39 40 41 42 43 44 45 46 47 48

000
ASUS43 KDMX 030707
RWRIA

WEATHER ROUNDUP FOR IOWA
NATIONAL WEATHER SERVICE DES MOINES IA
200 AM CDT FRI JUL 03 2015

NOTE: "FAIR" INDICATES FEW OR NO CLOUDS BELOW 12,000 FEET WITH NO
SIGNIFICANT WEATHER AND/OR OBSTRUCTIONS TO VISIBILITY.

* - THESE STATIONS ARE NOT NWS STATIONS...THUS NOT UNDER NWS
QUALITY CONTROL.  THEY ALSO DO NOT REPORT WEATHER SUCH
AS PRECIPITATION OR FOG.

IAZ001>003-012>014-020>022-031>034-043>046-030800-
   NORTHWEST IOWA

CITY           SKY/WX    TMP DP  RH WIND       PRES   REMARKS
CARROLL *      CLOUDY    61  61 100 CALM      30.01S
CHEROKEE *     PTCLDY    55  55 100 CALM      30.02S
DENISON *      CLOUDY    59  57  94 CALM      29.99S
LE MARS *        N/A     55  55 100 CALM      30.03R FOG
ORANGE CITY *  CLEAR     57  55  94 CALM      30.03R
SHELDON *      CLOUDY    50  50 100 CALM      30.02R
SIOUX CITY     PTCLDY    59  56  89 CALM      30.01S
SPENCER        CLEAR     46  43  89 NW3       30.03R
STORM LAKE *   CLEAR     57  54  88 S3        30.03S
$$

IAZ055>058-069>071-079>083-090>094-030800-
   SOUTHWEST IOWA

CITY           SKY/WX    TMP DP  RH WIND       PRES   REMARKS
ATLANTIC *     CLOUDY    59  57  94 NE5       29.99F
AUDUBON *      CLEAR     57  55  94 CALM      30.01S
CLARINDA *     CLOUDY    61  57  88 N3        30.00S
COUNCIL BLFS * CLOUDY    61  55  82 E5        29.99F
CRESTON *      MOCLDY    61  57  88 NE5       29.99S
HARLAN  *      CLOUDY    59  59 100 CALM      30.03S
LAMONI         CLOUDY    62  58  86 NE3       29.98S
RED OAK *      CLOUDY    63  57  82 CALM      29.99F
SHENANDOAH *     N/A     63  57  82 E5        29.98F
$$

IAZ047>049-059>061-072>074-084-030800-
   CENTRAL IOWA

CITY           SKY/WX    TMP DP  RH WIND       PRES   REMARKS
AMES           MOCLDY    56  54  93 CALM      30.00F
ANKENY *       CLEAR     55  55 100 CALM      29.99F
CHARITON *     CLOUDY    61  59  94 NE3       29.98S
DES MOINES     MOCLDY    63  55  75 CALM      29.99S
GRINNELL*      CLOUDY    59  57  94 CALM      30.00F
KNOXVILLE *    CLOUDY    63  55  77 NE3       29.97F
MARSHALLTOWN   CLOUDY    59  57  93 CALM      29.99F
PELLA *        CLOUDY    59  59 100 CALM      30.00S
PERRY *          N/A     59  57  94 NE5       30.00F
$$

IAZ004>006-015-016-023>025-035-036-030800-
   NORTH CENTRAL IOWA

CITY           SKY/WX    TMP DP  RH WIND       PRES   REMARKS
ALGONA *       CLEAR     55  52  88 CALM      30.02S
CLARION *      CLEAR     54  52  94 CALM      30.01S
ESTHERVILLE    CLEAR     50  48  93 W5        30.02R
FORT DODGE *   PTCLDY    54  52  94 CALM      30.01F
MASON CITY     MOCLDY    57  54  89 CALM      30.02S
FOREST CITY *  FOG       54  54 100 CALM      30.01S VSB 1/2
IOWA FALLS *     N/A     55  54  94 CALM      30.02S
$$

IAZ007>011-017>019-026>030-037>042-050>054-066-030800-
   NORTHEAST IOWA

CITY           SKY/WX    TMP DP  RH WIND       PRES   REMARKS
CEDAR RAPIDS   CLOUDY    60  55  83 NE3       29.98F
CHARLES CITY * MOCLDY    59  57  94 CALM      30.01S
CLINTON *      CLOUDY    59  54  82 E7        30.01S
DECORAH *        N/A    N/A N/A N/A MISG        N/A
DUBUQUE        CLOUDY    57  49  74 CALM      30.00S
MONTICELLO *   CLEAR     55 N/A N/A CALM      29.99S
OELWEIN *      PTCLDY    57  54  88 CALM      30.01S
WATERLOO       MOCLDY    56  53  90 CALM      29.99F
$$

IAZ064-065-067-068-078-030800-
   EAST CENTRAL IOWA

CITY           SKY/WX    TMP DP  RH WIND       PRES   REMARKS
DAVENPORT      CLOUDY    60  56  86 NE5       29.98F
IOWA CITY      CLOUDY    63  55  75 NE5       29.99F
MT. PLEASANT * CLOUDY    64  61  88 N3        29.97F
MUSCATINE *    PTCLDY    63  57  82 CALM      29.97F
QUAD CITIES    CLOUDY    62  57  83 E5        29.97F
$$

IAZ062-063-075>077-085>089-095>099-030800-
   SOUTHEAST IOWA

CITY           SKY/WX    TMP DP  RH WIND       PRES   REMARKS
BURLINGTON     CLOUDY    64  59  83 NE7       29.96F
FAIRFIELD *    CLOUDY    61  59  94 N5        29.97F
FORT MADISON * PTCLDY    63  61  94 CALM      29.97F
KEOKUK *       CLOUDY    64  59  82 NE6       29.95F
OSKALOOSA *    CLOUDY    61  57  88 CALM      29.99S
CENTERVILLE *  PTCLDY    63  57  82 E3        29.98F
OTTUMWA        CLOUDY    62  58  86 NE5       29.96F
WASHINGTON *   CLOUDY    63  57  82 NE5       29.99F
$$

ABBREVIATIONS USED IN REMARKS
   TC - TEMPERATURES IN CELSIUS
  WCI - WIND CHILL INDEX
   HX - HEAT INDEX
  VSB - VISIBILITY
$$




USA.gov is the U.S. government's official web portal to all federal, state and local government web resources and services.